This is the latest recevied weather packets stored in our database for station/object OK2ILA-3. If no packets are shown the sender has not sent any weather packets the latest 10 day(s).
| Time | Temp. | Humidity | Pressure | Rain* | Wind** | Luminosity | Snow |
|---|---|---|---|---|---|---|---|
| 1777777875 | 9.44° C | 51% | 4352 hPa | 0 mm | - | - | - |
| 1777777268 | 9.44° C | 100% | 4352 hPa | 0 mm | - | - | - |
| 1777776661 | 9.44° C | - | - | 110.49 mm | - | - | - |
| 1777776053 | 9.44° C | 100% | 4352 hPa | 0 mm | - | - | - |
| 1777774237 | 9.44° C | 95% | 8.9 hPa | 0 mm | - | - | - |
| 1777773632 | 9.44° C | 47% | 8.9 hPa | 0 mm | - | - | - |
| 1777773023 | 10° C | 4% | 8.9 hPa | 0 mm | - | - | - |
| 1777772417 | 10° C | 8% | 8.9 hPa | 0 mm | - | - | - |
| 1777771811 | 10° C | 100% | 198.4 hPa | 0 mm | - | - | - |
| 1777771201 | 10° C | 100% | 0 hPa | 0 mm | - | - | - |
| 1777770595 | 10° C | 51% | 4352 hPa | 0 mm | - | - | - |
| 1777769989 | 10.56° C | 51% | 0.7 hPa | 0 mm | - | - | - |
| 1777769381 | 10.56° C | 2% | 0.7 hPa | 0 mm | - | - | - |
| 1777768776 | 10.56° C | 77% | 4352 hPa | 0 mm | - | - | - |
| 1777768169 | 10.56° C | 100% | 3123.2 hPa | 0 mm | - | - | - |
| 1777766341 | 10° C | 82% | 4352 hPa | 0 mm | - | - | - |
| 1777765126 | 10.56° C | 100% | 4352 hPa | 0 mm | - | - | - |
| 1777764520 | 11.67° C | 8% | 0 hPa | 0 mm | - | - | - |
| 1777763916 | 11.67° C | 100% | 0 hPa | 0 mm | - | - | - |
| 1777763308 | 11.67° C | 3% | 0 hPa | 0 mm | - | - | - |
| 1777762700 | 11.67° C | 95% | 53.2 hPa | 0 mm | - | - | - |
| 1777762092 | 11.67° C | 4% | 851.2 hPa | 0 mm | - | - | - |
| 1777760880 | 11.67° C | 3% | 851.2 hPa | 0 mm | - | - | - |
| 1777760276 | 11.67° C | 37% | 851.2 hPa | 0 mm | - | - | - |
| 1777759673 | 11.67° C | 100% | 851.2 hPa | 0 mm | - | - | - |
* Rain latest 24 hours (hover to see other rain measurements)
** Current wind speed in m/s (hover to see current wind gust speed)